Location: Boissy
(48.8167°N, 1.8000°E)
Time: 21:47:33
(UTC+00:00)

Daily predictions for brighter satellites

Satellite Brightness Start Highest point End
(mag) Time Altitude Azimuth Time Altitude Azimuth Time Altitude Azimuth
Cosmos 2227 Rocket 2.4 16:23:57 10° NNW 16:29:27 50° NE 16:34:55 10° SE
Meteor 1-28 Rocket 3.6 16:27:11 10° NNE 16:30:18 35° E 16:33:22 10° SSE
Cosmos 2369 Rocket 4.2 16:28:14 10° W 16:32:02 18° NW 16:35:53 10° N
CBERS-1 4.0 16:27:29 10° SSE 16:32:31 66° ENE 16:37:37 10° N
CENTAUR R/B 3.6 16:34:54 10° W 16:40:33 38° NNW 16:47:33 10° NE
Cosmos 1697 Rocket 3.0 16:35:54 10° S 16:41:13 47° ESE 16:46:36 10° NE
Cosmos 2360 4.3 16:37:04 10° SSW 16:42:48 86° WNW 16:48:34 10° NNE
Cosmos 1626 Rocket 4.1 16:38:57 10° NNW 16:43:14 62° W 16:47:26 10° S
CZ-2D R/B 3.9 16:41:52 10° ESE 16:44:25 23° ENE 16:46:59 10° NNE
NOSS 2-3 (C) 4.5 16:42:25 10° S 16:45:08 22° ESE 16:47:48 11° ENE
Cosmos 2266 Rocket 3.9 16:42:57 10° N 16:49:04 67° ENE 16:55:05 10° SSE
Cosmos 1656 4.2 16:45:04 10° SW 16:50:38 60° WNW 16:56:18 10° NNE
Cosmos 2228 4.4 16:47:38 10° SW 16:51:37 38° WNW 16:55:37 10° N
Cosmos 1606 Rocket 4.0 16:48:22 10° SSE 16:52:31 42° E 16:56:43 10° NNE
Cosmos 1503 Rocket 4.0 16:49:31 10° SSW 16:54:45 81° ESE 16:59:58 10° NNE
Lacrosse 5 rocket 2.6 16:53:14 10° WNW 16:56:17 23° N 16:58:51 12° NE
UNK 3.9 16:54:45 10° NNE 16:59:15 53° E 17:03:40 10° S
CZ-4C R/B 3.4 16:52:20 10° NW 16:59:19 72° SW 17:07:58 10° SSE
Cosmos 1484 Rocket 3.2 16:56:11 10° S 16:59:38 57° W 17:03:05 10° NNW
Thor Agena Rocket 3.5 16:55:38 10° SSE 17:00:50 83° ENE 17:06:00 10° NNW
Cosmos 1743 3.3 16:58:22 10° NNW 17:01:31 48° W 17:04:38 10° S
Cosmos 1544 Rocket 4.4 16:57:37 10° SSW 17:01:56 54° WNW 17:06:19 10° N
IRS-P3 4.4 16:58:36 10° SE 17:03:35 43° ENE 17:08:36 10° N
NOSS 2-3 (D) 3.7 17:00:52 10° SSW 17:04:21 41° ESE 17:07:02 16° ENE
NOSS 2-3 (E) 3.6 17:01:29 10° SSW 17:04:59 45° SE 17:07:43 16° NE
Cosmos 1354 Rocket 4.0 17:00:33 10° SSW 17:05:46 72° ESE 17:11:01 10° NNE
IGS 5A 3.8 17:03:10 10° S 17:07:05 64° WSW 17:11:04 10° NNW
Cosmos 1777 Rocket 4.3 17:02:47 10° SSW 17:08:01 70° WNW 17:13:16 10° NNE
Cosmos-2242 4.2 17:06:17 10° SE 17:09:30 21° E 17:11:23 16° NE
Cosmos 2151 3.5 17:05:30 10° NNW 17:09:38 62° W 17:13:44 10° S
USA 238 DEB 4.0 17:04:02 10° S 17:09:42 42° ESE 17:14:48 15° NE
USA 238 4.0 17:04:09 10° S 17:09:49 42° ESE 17:14:54 15° NE
MOS 1 Rocket 3.6 17:05:39 10° SE 17:10:28 51° ENE 17:15:34 10° N
Cosmos 1898 Rocket 4.4 17:09:25 10° SSE 17:13:41 27° E 17:16:31 17° NE
Gbstr 26 Del rocket 2.7 17:09:49 10° WSW 17:13:58 73° SSE 17:16:29 20° ENE
Cosmos 1726 Rocket 3.8 17:10:32 10° S 17:15:01 53° E 17:19:29 10° NNE
ERS-1 4.4 17:11:39 10° SSE 17:16:34 61° ENE 17:21:28 10° N
USA 215 3.8 17:12:07 15° ENE 17:17:19 45° N 17:23:28 10° WNW
IRIDIUM 104 4.5 17:12:21 10° N 17:17:36 78° W 17:22:48 10° S
Cosmos 2082 4.1 17:12:33 10° NNW 17:17:56 40° NE 17:23:18 10° ESE
AQUARIUS 4.1 17:13:44 10° SSE 17:18:03 58° ENE 17:22:23 10° N
SMAP 3.2 17:14:42 10° SSE 17:19:22 82° WSW 17:24:04 10° NNW
Cosmos 1805 3.9 17:17:48 10° NNE 17:20:37 24° ENE 17:23:26 10° SE
Cosmos 2297 Rocket 4.0 17:16:32 10° NW 17:21:38 35° WSW 17:26:41 10° S
Landsat 7 3.7 17:18:50 10° SSE 17:23:29 86° ENE 17:28:10 10° NNW
GEOS 3 Rocket 3.7 17:19:09 15° NE 17:23:36 66° SE 17:28:56 10° SSW
YAOGAN 1 3.3 17:22:41 10° SE 17:26:21 29° ENE 17:30:01 10° N
Cosmos 1937 Rocket 4.4 17:24:56 10° SSE 17:29:13 27° E 17:30:51 23° ENE
Okean 1-7 Rocket 4.3 17:26:15 10° NNW 17:30:33 55° W 17:34:48 10° S
SL-16 R/B 4.1 17:28:42 10° ESE 17:29:26 11° ESE 17:29:26 11° ESE
Cosmos 990 Rocket 4.0 17:28:02 10° SSW 17:33:10 81° WNW 17:38:14 11° NNE
Cosmos 1461 4.0 17:30:00 10° WSW 17:33:35 34° NW 17:36:23 15° NNE
CZ-2D R/B 3.9 17:30:30 10° SE 17:34:23 38° ENE 17:38:13 10° N
SL-16 R/B 3.3 17:29:16 10° N 17:35:16 51° WNW 17:41:12 10° SW
SKYMED 2 4.0 17:35:14 22° NE 17:37:29 39° E 17:41:33 10° SSE
COSMOS 2455 4.0 17:33:18 10° SSE 17:37:46 22° ESE 17:38:36 21° E
Okean 1 3.9 17:35:30 10° SSE 17:38:21 30° ESE 17:38:21 30° ESE
SJ-6F 4.3 17:40:45 10° SSE 17:44:44 89° WSW 17:48:47 10° NNW
Cosmos 1844 Rocket 3.5 17:40:00 10° NNW 17:44:52 29° NE 17:45:49 27° ENE
Cosmos 2219 3.1 17:39:28 10° NNW 17:45:13 72° ENE 17:50:58 10° SE
Cosmos 1980 Rocket 2.1 17:39:56 10° SSW 17:45:32 68° ESE 17:49:21 21° NE
Aureole 1 Rocket 3.4 17:42:56 10° S 17:47:29 68° ESE 17:51:47 18° NNE
Cosmos 1953 Rocket 3.6 17:43:05 10° N 17:47:33 84° W 17:52:00 10° S
Meteor 1-26 Rocket 4.2 17:43:37 10° S 17:48:48 51° E 17:52:48 17° NNE
PSLV R/B 3.7 17:50:00 38° E 17:50:29 40° ENE 17:54:18 10° N
ARIANE 5 R/B 3.2 17:47:31 10° S 17:52:30 56° W 17:57:35 10° NNW
Cosmos 2263 Rocket 2.4 17:47:43 10° NNW 17:53:24 73° WSW 17:59:03 10° SSE
SL-19 R/B 4.3 17:48:10 10° SE 17:53:26 52° ENE 17:59:00 10° N
BREEZE-M DEB (TANK) 3.4 17:53:47 10° SW 17:57:11 29° SSE 17:57:13 29° SSE
Cosmos 1680 Rocket 3.7 17:53:46 10° NNW 17:58:47 44° ENE 18:00:24 34° ESE
COSMO-SKYMED 1 2.9 17:59:08 40° ESE 17:59:08 40° ESE 18:02:43 10° S
NOSS 3-2 (C) 4.1 17:54:19 10° WSW 17:59:21 43° NW 18:03:20 20° NNE
BREEZE-M DEB (TANK) 3.9 17:55:46 10° WNW 17:59:21 83° SSW 18:06:53 20° ESE
NOAA 15 4.5 17:55:29 10° SSE 18:00:44 69° ENE 18:06:00 10° N
Cosmos 1076 Rocket 4.3 17:57:56 10° NNW 18:02:09 54° W 18:06:21 10° S
Meteor 2-10 4.1 17:57:00 10° NNW 18:02:26 85° WSW 18:08:00 10° S
NOAA 6 4.1 17:57:51 10° SE 18:02:44 48° ENE 18:07:38 10° N
Cosmos 2369 3.8 17:57:40 10° S 18:03:12 55° ESE 18:05:20 35° NE
USA 81 4.1 18:06:18 10° N 18:11:34 78° W 18:16:50 10° S
Cosmos 44 Rocket 3.8 18:07:02 10° NNW 18:11:53 41° NE 18:11:53 41° NE
Cosmos 2227 Rocket 4.1 18:08:21 10° NW 18:13:15 31° WSW 18:18:09 10° SSW
SPOT 1/Viking Rocket 3.8 18:11:22 10° S 18:16:33 71° WSW 18:21:46 10° NNW
Cosmos 2058 Rocket 3.4 18:19:22 10° SSW 18:23:49 65° WNW 18:26:26 24° N
Cosmos 1697 Rocket 4.0 18:20:15 10° WSW 18:25:20 35° NW 18:29:16 16° N
OceanSat 1 rocket 4.4 18:21:26 10° SSE 18:26:10 82° ENE 18:30:53 10° NNW
Cosmos 2333 Rocket 4.1 18:28:14 10° SSE 18:29:34 16° SSE 18:29:34 16° SSE
CENTAUR R/B 4.2 18:27:35 10° NW 18:33:20 27° N 18:35:36 23° NNE
Lacrosse 5 rocket 3.1 18:30:55 10° NW 18:32:26 19° NNW 18:32:26 19° NNW
Meteor 2-11 Rocket 4.3 18:28:19 10° N 18:34:32 85° E 18:40:41 10° S
NOSS 2-3 (C) 4.4 18:31:51 10° WSW 18:34:52 35° NW 18:34:52 35° NW
Meteor 1-14 Rocket 4.1 18:32:57 10° N 18:38:44 71° ENE 18:39:10 67° ESE
Resurs 1-3 4.3 18:39:17 10° S 18:43:28 52° W 18:47:41 10° NNW
Cosmos-2242 4.2 18:42:15 10° SW 18:46:16 40° WNW 18:47:46 29° NNW
Cosmos 1898 Rocket 4.3 18:50:25 10° SW 18:55:23 48° WNW 18:56:45 39° NNW
Cosmos 1844 4.1 18:50:27 10° NNW 18:54:37 50° N 18:54:37 50° N
USA 215 3.5 18:59:28 50° NNE 18:59:40 51° NNE 19:05:57 10° WNW
USA 238 DEB 4.1 18:54:24 10° WSW 19:00:29 52° NW 19:02:15 42° N
Cosmos 2112 Rocket 4.3 18:55:19 10° NNW 18:59:47 63° NW 18:59:47 63° NW
USA 238 4.1 18:54:30 10° WSW 19:00:35 53° NW 19:02:21 42° N
Cosmos 1553 Rocket 4.4 18:54:36 10° SSW 19:00:41 59° WNW 19:06:56 10° N
S3M 4.4 18:54:50 10° S 18:59:18 48° SSE 18:59:18 48° SSE
YAOGAN 1 4.2 18:58:17 10° SSW 19:02:07 33° W 19:06:00 10° NNW
BREEZE-M DEB (TANK) 3.8 19:01:12 10° SW 19:06:16 46° SSW 19:06:16 46° SSW
Cosmos 1937 Rocket 4.2 19:05:50 10° SW 19:10:50 48° WNW 19:10:58 48° NW
Cosmos 2237 4.5 19:07:49 10° SW 19:12:59 65° W 19:12:59 65° W
SL-16 R/B 3.4 19:08:27 10° SSW 19:11:20 32° SSW 19:11:20 32° SSW
Cosmos 1745 Rocket 4.2 19:10:26 10° NNW 19:16:34 67° W 19:22:37 10° S
COSMOS 2455 3.3 19:17:01 10° SW 19:21:46 57° SW 19:21:46 57° SW
Cosmos 1844 Rocket 3.6 19:23:34 10° NNW 19:27:31 43° NW 19:27:31 43° NW
Cosmos 1980 Rocket 3.9 19:25:18 10° WSW 19:30:00 27° NW 19:31:07 25° NNW
